World > North America > United States > North Carolina

Bahama, North Carolina Regional Weather

Lat: 36.17N, Lon: 78.88W
Wx Zone: NCZ025
Warning FLW WEATHER ALERT - (More Info. Click Here) Warning
Feedback

Bahama, NC Regional Weather

Expires:201907220900;;446041
ASUS42 KRAH 220810
RWRRAH
NORTH CAROLINA WEATHER ROUNDUP
NATIONAL WEATHER SERVICE RALEIGH NC
400 AM EDT MON JUL 22 2019

NOTE: "FAIR" INDICATES FEW OR NO CLOUDS BELOW 12,000 FEET WITH NO
SIGNIFICANT WEATHER AND/OR OBSTRUCTIONS TO VISIBILITY.


NCZ021-022-025-041-071-084-088-220900-
CENTRAL NORTH CAROLINA
  
CITY           SKY/WX    TMP DP  RH WIND       PRES   REMARKS
CHARLOTTE      FAIR      77  68  73 SW5       29.98F                  
GREENSBORO     MOCLDY    77  71  82 SW8       29.96S                  
WINSTON-SALEM  FAIR      78  69  73 SW5       29.98R                  
RALEIGH-DURHAM FAIR      76  67  73 SW7       29.96S                  
FORT BRAGG     FAIR      80  74  80 SW7       29.96S                  
FAYETTEVILLE   FAIR      79  75  87 SW6       29.97S                  
BURLINGTON     FAIR      78  68  71 CALM      29.95F                  
ROXBORO        FAIR      73  68  83 CALM      29.97S                  
HENDERSON      FAIR      73  67  82 CALM      29.95F                  
LOUISBURG      FAIR      73  70  88 S5        29.98F                  
LAURINBURG     FAIR      78  74  87 SW7       29.98S                  
$$
 

SKY/WX - Weather  TMP - Temperature  DP - Dew Point  RH - Relative Humidity
WIND - Wind Direction/Speed PRES - Barometric Pressure VSB - Visibility
WCI - Wind Chill Index E13G22 Wind - East Wind 13 mph/Gusts of 22 mph